This demonstration page uses our WeatherBlox Daily Observations layout. Learn more.

Left ArrowRight Arrow

44.31136, -96.79839

Hourly Observations for May 12, 2022

Temp ( °F °C ) Dew Point ( °F °C ) Humidity (%) Winds ( mph kmh ) Pressure ( in mb ) Visibility ( mi km ) Precip ( " mm )
12:56 am 00:56 Mostly Cloudy with Mist and Fog 61 16.1 61 16.1 100 100 SE 14 22 29.95 1014 2 3 0.00 0.00
1:04 am 01:04 Cloudy with Mist and Fog 61 16 61 16 100 100 ESE 14 22 29.88 1012 1 2 0.00 0.00
1:15 am 01:15 Cloudy with Mist and Fog 61 16 61 16 100 100 ESE 14 22 29.87 1012 1 1 0.00 0.00
1:43 am 01:43 Cloudy with Mist and Fog 61 16 61 16 100 100 ESE 13 20 29.86 1011 1 2 0.00 0.00
1:56 am 01:56 Cloudy with Mist and Fog 61 16.1 61 16.1 100 100 ESE 13 20 29.91 1013 2 2 0.00 0.00
2:35 am 02:35 Cloudy with Mist and Fog 61 16 61 16 100 100 ESE 9 15 29.84 1011 3 5 0.00 0.00
2:56 am 02:56 Partly Cloudy 61 16.1 61 16.1 100 100 ESE 12 19 29.87 1012 8 13 0.00 0.00
3:56 am 03:56 Clear with Nearby Thunderstorms 62 16.7 60 15.6 93 93 ESE 15 24 29.83 1010 10 16 0.00 0.00
4:10 am 04:10 Mostly Clear with Nearby Thunderstorms 63 17 61 16 94 94 NNE 10 17 29.86 1011 10 16 0.00 0.00
4:19 am 04:19 Mostly Cloudy with Nearby Thunderstorms 63 17 61 16 94 94 ESE 9 15 29.85 1011 10 16 0.00 0.00
4:36 am 04:36 Mostly Cloudy with Nearby Thunderstorms 64 18 61 16 88 88 NW 7 11 29.84 1011 10 16 0.00 0.00
4:56 am 04:56 Cloudy 63 17.2 60 15.6 90 90 N 5 7 29.90 1012 10 16 0.00 0.00
5:56 am 05:56 Cloudy 64 17.8 61 16.1 90 90 E 8 13 29.87 1011 10 16 0.00 0.00
6:23 am 06:23 Mostly Sunny 64 18 61 16 88 88 E 10 17 29.79 1009 10 16 0.00 0.00
6:56 am 06:56 Mostly Sunny 64 17.8 61 16.1 90 90 E 14 22 29.84 1010 10 16 0.00 0.00
7:56 am 07:56 Mostly Sunny 64 17.8 61 16.1 90 90 E 13 20 29.83 1010 10 16 0.00 0.00
8:56 am 08:56 Partly Cloudy 67 19.4 64 17.8 91 91 SE 15 24 29.81 1010 10 16 0.00 0.00
9:05 am 09:05 Mostly Cloudy 66 19 64 18 94 94 ESE 14 22 29.75 1007 10 16 0.00 0.00
9:56 am 09:56 Cloudy 70 21.1 66 18.9 87 87 ESE 10 17 29.80 1009 10 16 0.00 0.00
10:31 am 10:31 Cloudy 72 22 68 20 88 88 E 10 17 29.71 1006 10 16 0.00 0.00
10:56 am 10:56 Cloudy 68 20 65 18.3 90 90 E 15 24 29.79 1009 10 16 0.00 0.00
11:06 am 11:06 Cloudy 66 19 63 17 88 88 E 16 26 29.73 1007 10 16 0.00 0.00
11:56 am 11:56 Cloudy 67 19.4 64 17.8 91 91 E 16 26 29.78 1008 10 16 0.00 0.00
12:48 pm 12:48 Cloudy 68 20 64 18 88 88 E 21 33 29.69 1005 9 14 0.00 0.00
12:56 pm 12:56 Cloudy 67 19.4 64 17.8 91 91 E 18 30 29.75 1008 9 14 0.00 0.00
1:34 pm 13:34 Cloudy 70 21 64 18 83 83 E 18 30 29.66 1005 9 14 0.00 0.00
1:56 pm 13:56 Cloudy 71 21.7 67 19.4 87 87 E 18 30 29.72 1006 9 14 0.00 0.00
2:56 pm 14:56 Mostly Cloudy 76 24.4 70 21.1 82 82 E 20 31 29.68 1005 9 14 0.00 0.00
3:56 pm 15:56 Mostly Cloudy 86 30 71 21.7 61 61 S 18 30 29.62 1003 10 16 0.00 0.00
4:05 pm 16:05 Partly Cloudy 88 31 70 21 55 55 SSE 15 24 29.49 999 10 16 0.00 0.00
4:56 pm 16:56 Sunny 87 30.6 68 20 53 53 SSE 18 30 29.57 1002 10 16 0.00 0.00
5:28 pm 17:28 Mostly Cloudy with Nearby Thunderstorms 82 28 63 17 51 51 S 63 102 29.52 1000 1 1 0.00 0.00

Powered by AerisWeather